Weather in Viana do Castelo

Portugal     41°49′02″N   8°51′45″W
temp.,
°C
wind,
m/s
gust,
m/s
humid.,
%
clouds,
%
prec.,
mm/h
press.,
hPa
HPBL,
m
25 may, wed
wed2501:00+10nne3594100 0.0 1021137
04:00+9nne3495100 0.0 102298
07:00+9nne248768 0.0 1023114
10:00+17nne36508 0.0 10241085
13:00+21n574021 0.0 10231457
16:00+21nnw68505 0.0 10221037
19:00+19nnw566632 0.0 1022336
22:00+15nne34855 0.0 102361
26 may, thu
thu2601:00+14ne33775 0.0 102348
04:00+13ene32755 0.0 102241
07:00+14ene33717 0.0 102353
10:00+22nne11458 0.0 1024436
13:00+26nw33385 0.0 10231166
16:00+25nw44415 0.0 1022761
19:00+22nw34544 0.0 1021218
22:00+18ne32645 0.0 102128
27 may, fri
fri2701:00+18ene33665 0.0 102137
04:00+17e336214 0.0 102039
07:00+16e34596 0.0 102054
10:00+26e233434 0.0 1020364
13:00+31wnw122485 0.0 10191632
16:00+28nw333478 0.0 1018914
19:00+25nw354968 0.0 1016156
22:00+20ne33631 0.0 101630
28 may, sat
sat2801:00+19e33510 0.0 101537
04:00+18e34530 0.0 101350
07:00+17e33520 0.0 101353
10:00+26ssw22365 0.0 1014486
13:00+29wsw23310 0.0 10131290
16:00+27wnw33360 0.0 1012570
19:00+24nnw35430 0.0 1010303
22:00+18ne11685 0.1 101111
29 may, sun
sun2901:00+15sse22875 0.3 101123
04:00+15ese22850 0.0 101016
07:00+16sse11820 0.0 101029
10:00+22ssw34585 0.0 1010573
13:00+24sw3450100 0.0 1010829
16:00+22sw3354100 0.1 1009632
19:00+21wnw105474 0.1 1009393
22:00+16s1183100 0.0 100915